Location: Cucq
(50.4773°N, 1.6202°E)
Time: 16:03:48
(UTC+00:00)

Cosmos 2098 Rocket - Pass Details

Date: 07 August 2020
Orbit: 367 x 1184 km, 82.9° (Epoch: 18 September)

Event Time Altitude Azimuth Distance (km) Brightness Sun altitude
Rises 02:48:17 0° 347° (NNW) 2,867 7.0 -13.6°
Reaches altitude 10° 02:50:18 10° 344° (NNW) 2,069 6.2 -13.4°
Maximum altitude 02:54:53 62° 264° (W) 865 3.5 -12.9°
Drops below altitude 10° 03:00:38 10° 185° (S) 2,590 5.8 -12.3°
Enters shadow 03:01:20 - 184° (S) 2,862 6.0 -12.2°
